Temperature
20 18 18 18 19 19 19 19 19 19 20 20 19 19 19 19 20 19 19 19 20 20 20 20 20 20 20 20 20 19 19 19 18 18 18 17 17 16 16 16 15 15 15 15
18 18 19 20 20 20 20 19 19 20 20 19 18 18 19 19 19 19 19 19 20 20 20 20 20 20 20 20 20 19 19 19 18 18 18 17 17 16 16 16 16 15 15 15
19 20 21 21 21 20 20 19 19 19 20 19 19 18 18 18 19 19 19 19 19 20 20 20 20 20 20 20 19 19 19 18 18 18 17 17 17 16 16 16 16 15 15 15
19 21 22 21 21 21 20 21 21 20 19 18 19 17 18 17 17 18 18 18 19 19 20 20 20 20 20 19 19 19 19 18 18 18 17 17 17 16 16 16 16 15 15 15
20 21 21 21 21 21 20 21 21 20 18 18 18 17 17 17 17 17 17 18 18 19 19 19 19 19 19 19 19 19 18 18 18 17 17 17 17 16 16 16 16 15 15 15
21 22 22 21 22 22 21 20 20 18 17 18 18 17 17 16 17 17 17 18 18 19 19 19 19 19 19 19 18 18 18 18 17 17 17 17 16 16 16 16 16 15 15 15
21 21 22 22 21 21 20 18 18 18 17 17 18 17 17 17 17 17 17 17 18 19 19 19 18 18 18 18 18 18 18 17 17 17 17 16 16 16 16 15 15 15 15 15
19 20 21 22 21 20 20 18 18 18 17 17 18 17 17 18 18 18 18 18 18 18 18 18 18 18 18 18 17 17 17 17 17 17 16 16 16 16 15 15 15 15 15 15
19 20 22 23 22 21 20 18 18 17 18 17 17 17 17 17 17 17 17 17 17 18 18 18 18 18 17 17 17 17 17 17 16 16 16 16 16 15 15 15 15 15 15 15
20 20 22 23 22 21 20 19 17 17 17 17 18 17 16 16 16 16 16 17 17 17 17 17 17 17 17 17 17 17 16 16 16 16 16 16 15 15 15 15 15 15 14 14
20 20 21 22 22 21 21 20 18 16 17 17 17 17 18 17 17 16 16 17 17 17 17 17 17 17 17 17 16 16 16 16 16 15 15 15 15 15 15 15 15 14 14 14
20 18 19 20 21 22 21 20 18 18 18 16 16 17 18 17 17 17 17 17 17 17 17 17 17 16 16 16 16 16 16 15 15 15 15 15 15 15 14 14 14 14 14 14
20 18 19 19 20 22 22 21 19 17 16 16 16 17 17 16 16 17 17 17 17 17 17 16 16 16 16 16 16 15 15 15 15 14 14 14 14 14 14 14 14 14 13 13
20 18 19 19 20 20 21 22 21 18 17 17 17 17 16 16 15 16 17 17 17 16 16 16 16 16 16 15 15 15 15 14 14 14 14 14 14 14 13 13 13 13 13 13
19 19 20 20 21 21 22 22 21 20 18 18 18 17 17 16 16 16 17 17 16 16 16 16 16 16 15 15 15 15 14 14 14 14 13 13 13 13 13 13 13 12 12 12
18 20 21 21 21 21 22 21 21 20 20 19 18 17 17 17 17 17 17 16 16 16 16 16 15 15 15 15 15 14 14 14 14 13 13 13 13 12 12 12 12 12 12 12
18 19 19 19 20 21 20 21 21 20 20 19 18 17 16 15 16 16 16 17 16 16 16 16 15 15 15 14 14 14 14 14 13 13 13 12 12 12 12 12 12 12 11 11
18 17 16 17 19 20 19 20 21 20 20 19 19 17 17 17 18 18 18 17 17 16 16 15 15 15 14 14 14 14 13 13 13 13 12 12 12 12 11 11 11 11 11 11
17 17 16 16 18 18 19 20 20 20 19 19 18 17 17 18 17 16 17 17 17 17 16 16 15 15 14 14 13 13 13 13 13 12 12 12 11 11 11 11 11 10 10 10
16 16 16 16 18 18 19 20 21 20 19 18 18 17 16 16 14 15 17 17 17 16 16 15 15 14 14 14 13 13 13 12 12 12 12 11 11 11 11 10 10 10 10 10
17 16 16 16 17 17 18 20 20 19 18 19 19 18 17 17 17 18 17 17 16 16 15 15 14 14 14 13 13 13 12 12 12 11 11 11 11 10 10 10 10 10 9 9
16 16 15 14 16 17 18 19 18 18 19 19 19 19 18 18 18 18 17 16 16 15 15 14 14 14 13 13 12 12 12 12 11 11 11 11 10 10 10 10 9 9 9 9
15 16 15 15 16 18 19 20 21 21 20 20 19 19 19 18 17 17 17 16 16 15 15 14 14 13 13 12 12 12 12 11 11 11 10 10 10 10 10 9 9 9 9 8
16 15 14 15 16 17 19 20 20 20 20 20 20 19 19 18 17 17 16 16 15 15 14 14 13 13 12 12 12 12 11 11 11 10 10 10 10 10 9 9 9 8 8 8
16 16 14 15 15 17 18 19 20 20 20 19 19 19 18 18 17 16 16 15 15 14 14 13 13 13 12 12 11 11 11 11 10 10 10 10 9 9 9 9 8 8 8 8
14 15 15 15 16 15 17 19 19 19 19 18 18 18 17 17 16 16 15 15 14 14 13 13 13 12 12 12 11 11 11 10 10 10 10 9 9 9 8 8 8 8 8 7
Wind_Speed
1 3 2 5 7 6 5 5 4 3 2 5 6 4 2 2 5 5 5 5 6 5 3 5 6 6 6 5 5 5 5 3 3 2 2 2 1 1 1 1 1 0 0 1
3 2 6 5 5 5 5 5 4 1 3 5 7 5 2 3 3 5 6 6 6 5 4 4 5 5 5 5 4 4 4 4 3 2 2 1 1 1 1 1 2 2 2 1
5 5 5 5 5 5 4 6 6 5 4 4 6 5 3 3 4 6 5 5 5 6 5 4 4 4 4 3 3 4 4 3 3 3 3 3 3 3 3 3 2 3 3 3
3 3 2 3 3 5 3 6 9 8 6 1 3 2 3 1 4 5 4 4 4 4 4 4 4 3 3 3 3 3 3 3 2 3 3 3 2 0 2 2 2 4 4 3
2 2 4 2 4 5 5 5 7 6 6 4 3 4 4 1 2 2 3 4 4 4 5 4 3 3 3 3 4 3 4 3 2 2 3 2 1 1 2 2 3 4 4 4
3 2 3 4 3 4 5 5 6 6 5 1 3 4 4 4 6 4 3 4 4 4 5 4 4 4 4 4 4 4 4 3 2 1 1 1 0 1 2 3 3 3 3 4
2 1 1 2 3 2 5 6 4 3 3 3 2 3 6 6 7 8 8 6 5 5 5 5 5 4 4 4 3 3 4 2 1 1 1 1 1 1 1 2 2 3 3 3
2 2 3 3 5 5 4 8 7 5 4 2 1 3 4 3 6 6 7 6 5 5 5 5 5 4 3 3 2 3 2 1 1 2 2 2 1 0 1 2 1 2 2 3
5 4 4 4 4 7 5 3 6 6 3 1 1 1 3 3 6 6 7 7 6 5 5 5 4 3 2 2 1 2 2 1 2 2 2 3 2 1 1 2 1 2 2 3
6 3 3 3 3 2 6 7 6 5 4 2 2 3 6 8 9 8 8 7 6 5 5 5 4 3 2 1 1 2 2 1 2 2 2 3 2 2 2 2 3 4 4 3
4 4 2 1 4 6 3 3 4 4 5 6 4 6 7 13 13 12 10 9 8 7 6 5 3 2 2 2 2 3 2 2 2 2 2 3 3 3 3 3 4 4 4 4
3 5 2 5 5 5 6 6 7 5 4 4 5 6 3 11 11 11 10 8 8 7 6 5 4 3 2 2 2 2 2 2 2 2 2 2 3 3 4 4 5 5 5 5
5 5 3 5 5 2 2 4 6 6 5 5 5 5 1 7 9 9 10 9 8 7 6 4 3 3 2 2 1 1 1 1 1 2 3 3 4 4 4 5 5 5 5 5
5 4 6 8 8 5 4 5 5 6 4 4 6 6 4 9 10 10 10 10 8 7 7 5 3 2 2 1 1 1 1 1 2 3 3 3 3 3 4 4 5 5 5 5
5 3 4 6 5 5 6 7 7 7 8 8 8 10 12 15 15 13 11 10 9 8 7 6 4 3 2 2 1 1 1 1 2 3 3 2 3 4 4 5 5 5 6 6
3 3 1 2 3 2 4 7 7 7 6 6 6 8 8 10 9 10 11 12 10 8 7 6 5 4 3 2 2 1 1 1 2 2 2 2 3 4 5 5 5 6 6 6
3 4 2 3 4 2 5 8 8 7 7 9 9 10 9 10 14 15 14 13 11 10 8 7 6 5 4 3 3 2 1 1 2 2 2 3 3 4 5 6 6 6 6 6
6 5 4 1 2 5 9 5 6 7 6 7 7 9 15 15 14 12 10 12 11 10 9 7 6 4 3 3 2 2 2 2 2 2 2 3 3 4 5 5 6 6 5 5
6 7 4 3 3 6 8 4 5 6 4 4 8 10 10 9 7 2 6 9 11 10 8 7 6 5 4 3 3 3 2 1 1 1 2 3 3 3 4 5 5 5 5 6
5 6 6 4 4 6 8 5 2 6 3 4 8 13 12 12 7 8 8 8 9 8 8 7 5 4 4 3 3 3 1 0 2 3 3 3 3 3 4 4 4 4 4 5
3 3 5 5 5 7 7 3 5 5 7 4 9 13 14 11 9 7 10 9 9 8 7 7 6 4 4 3 3 3 2 3 4 3 3 3 3 3 3 3 3 4 5 6
8 6 6 6 5 8 4 5 6 7 2 5 8 10 10 7 7 9 11 10 10 8 7 7 6 4 3 3 3 3 3 4 3 2 2 3 4 4 3 3 4 4 4 5
6 8 7 8 8 5 3 6 5 6 6 5 7 7 10 9 8 9 9 9 9 8 7 6 6 4 3 3 4 4 5 4 2 2 3 4 4 4 3 3 4 4 4 4
3 2 4 2 3 2 2 2 3 5 6 6 8 9 9 8 9 9 9 8 7 7 6 5 5 4 3 3 4 5 5 3 2 3 4 4 4 4 4 4 3 4 4 5
4 2 2 1 3 1 2 2 4 4 6 7 7 7 9 10 9 9 8 8 7 6 5 5 6 5 5 4 4 4 4 3 3 3 4 4 4 4 5 4 4 5 5 6
4 6 6 7 8 6 5 4 5 7 7 7 7 6 6 9 10 8 8 7 7 6 5 5 5 5 5 4 4 4 3 3 3 3 4 4 4 4 4 5 6 8 8 12
Wind_Direction
60 74 181 200 180 169 159 149 165 218 166 96 102 98 48 41 105 120 124 131 132 145 141 123 121 127 125 125 127 130 126 125 114 95 93 77 32 334 340 296 274 325 357 32
64 237 225 197 178 161 157 144 156 130 114 108 106 86 56 65 113 146 145 147 147 133 107 112 116 116 126 132 135 144 148 144 141 125 136 152 165 267 279 308 314 286 267 288
177 224 206 170 160 156 178 171 165 151 101 89 95 37 22 16 69 95 110 131 133 138 141 140 122 115 113 118 137 150 161 150 146 114 84 57 44 21 7 348 322 299 282 279
235 245 155 148 165 156 187 186 165 151 116 112 116 124 305 357 65 89 102 106 121 130 125 125 118 115 119 122 113 118 131 134 131 117 107 107 99 3 267 282 295 302 299 290
224 156 134 171 196 162 183 156 143 131 117 80 62 117 270 279 104 123 127 125 129 131 126 122 119 130 113 103 104 101 100 98 103 118 131 125 130 243 293 316 324 321 317 306
225 200 160 180 184 151 139 85 71 59 77 89 211 143 234 221 190 171 151 144 138 127 120 111 95 87 71 66 77 83 91 83 78 102 121 130 187 292 332 331 327 321 318 313
345 331 287 146 100 33 96 98 69 34 29 248 194 148 231 216 180 166 163 160 152 130 122 110 99 89 77 71 70 76 84 67 29 34 12 334 275 259 267 287 297 305 313 309
142 263 236 184 161 168 162 136 149 167 193 259 58 196 257 192 158 147 145 143 135 127 128 125 126 124 116 110 92 88 87 56 12 11 350 353 11 1 289 284 287 278 276 281
167 235 248 195 164 140 135 161 164 135 146 129 271 310 340 96 132 137 138 133 137 138 134 129 120 117 120 117 102 108 103 48 4 1 8 15 17 16 328 317 324 303 296 304
160 190 242 193 91 102 151 151 110 124 152 174 220 222 212 193 178 164 159 153 152 145 136 130 128 129 119 106 82 70 75 61 23 19 23 31 10 357 347 351 339 327 314 315
149 149 263 156 185 192 152 136 129 131 155 153 197 252 215 190 180 170 170 165 159 155 147 143 141 136 118 85 71 65 55 47 34 30 27 21 5 3 5 1 345 334 327 322
156 133 198 247 253 188 165 174 152 154 199 169 172 253 258 175 169 162 160 160 159 153 149 143 135 118 101 88 71 65 65 63 40 43 43 25 11 11 7 349 340 345 341 332
137 121 93 348 332 321 190 186 157 138 128 153 167 249 3 142 151 161 157 158 155 147 139 130 121 115 113 114 102 87 76 74 46 52 45 26 12 3 353 341 339 344 343 339
126 126 165 191 214 209 212 218 173 138 155 189 205 198 185 169 167 170 166 163 157 154 151 146 141 139 138 131 127 103 49 71 67 60 49 26 2 354 342 341 340 338 339 340
119 161 213 227 230 199 203 209 199 185 183 185 206 189 197 189 179 174 169 162 157 158 160 161 158 155 148 137 103 80 60 47 71 66 41 6 352 353 349 343 337 336 339 340
114 156 156 298 274 237 231 220 203 202 193 186 173 208 203 174 158 161 167 166 167 169 168 166 162 159 162 164 159 103 53 39 83 71 22 353 356 353 345 334 335 337 335 332
122 132 119 268 299 10 267 229 204 200 194 170 192 210 160 160 175 178 176 174 174 173 169 167 168 172 177 179 166 155 151 79 73 54 7 353 351 345 335 336 342 334 328 330
140 125 134 171 37 239 247 256 195 185 209 197 186 176 171 177 182 180 173 173 175 173 170 170 169 169 176 171 161 145 104 79 64 23 343 333 337 332 333 340 335 325 322 325
154 141 132 140 205 271 288 261 172 165 234 207 178 167 162 133 106 162 190 172 173 171 166 166 168 165 162 165 161 128 97 76 51 320 308 302 308 321 331 331 322 318 323 323
96 111 129 143 181 234 248 262 159 107 264 242 166 156 147 132 159 215 191 164 158 155 156 157 156 147 149 174 153 130 150 180 265 270 278 288 293 305 308 306 306 312 317 315
115 104 151 174 213 257 254 243 105 149 233 215 167 159 160 172 189 174 157 158 157 155 157 154 149 151 170 173 143 150 196 240 252 263 280 301 300 294 289 299 304 312 318 323
172 167 183 162 193 250 240 141 169 204 200 154 157 163 164 155 131 139 152 155 156 156 158 155 153 166 184 170 152 179 232 248 254 265 289 299 298 299 313 309 307 313 316 323
189 190 185 185 207 242 208 182 185 156 144 150 156 160 149 140 148 151 156 158 160 161 162 161 161 172 197 193 174 201 239 246 247 264 284 292 298 300 299 294 299 308 313 312
275 144 137 194 261 250 183 143 140 147 148 149 148 145 145 152 155 154 156 159 161 164 166 163 160 173 210 225 216 221 234 230 221 248 273 285 291 298 301 296 289 292 300 301
238 141 123 226 260 14 310 196 159 133 124 122 126 138 148 147 154 159 163 168 170 171 173 170 174 190 215 225 236 246 239 213 220 245 266 278 275 280 290 288 276 276 271 271
217 185 179 219 217 189 215 208 159 141 146 146 138 137 146 153 159 162 170 174 173 175 173 176 186 200 217 221 237 253 243 214 212 244 264 267 269 275 280 289 300 290 282 291
Height
1508 1513 1517 1515 1514 1516 1519 1525 1529 1525 1521 1523 1528 1529 1527 1525 1525 1527 1528 1529 1530 1533 1535 1536 1536 1537 1538 1539 1539 1540 1540 1540 1539 1539 1538 1538 1537 1536 1536 1534 1533 1531 1530 1528
1514 1516 1510 1508 1510 1513 1517 1525 1527 1524 1521 1525 1530 1531 1528 1527 1527 1527 1528 1529 1531 1533 1535 1536 1536 1537 1538 1538 1539 1539 1540 1539 1539 1539 1538 1538 1537 1536 1535 1534 1533 1531 1530 1528
1514 1510 1505 1508 1511 1515 1519 1522 1524 1525 1524 1526 1530 1538 1535 1531 1528 1529 1529 1530 1531 1532 1534 1535 1536 1537 1538 1538 1539 1539 1539 1539 1539 1538 1538 1537 1536 1536 1535 1533 1532 1531 1529 1528
1510 1505 1505 1508 1511 1513 1520 1513 1516 1521 1530 1539 1535 1551 1540 1535 1532 1531 1531 1531 1532 1533 1534 1535 1536 1536 1537 1538 1538 1539 1539 1539 1539 1538 1537 1537 1536 1535 1534 1533 1531 1530 1529 1527
1509 1504 1506 1509 1509 1509 1513 1511 1515 1521 1530 1539 1540 1549 1546 1537 1536 1534 1532 1532 1532 1533 1533 1534 1535 1536 1537 1538 1538 1538 1538 1538 1538 1538 1537 1536 1535 1534 1533 1532 1531 1529 1528 1526
1504 1502 1503 1505 1504 1505 1508 1514 1520 1527 1535 1548 1542 1548 1548 1540 1534 1533 1532 1532 1532 1532 1533 1534 1535 1536 1537 1538 1538 1538 1538 1538 1537 1537 1536 1535 1534 1533 1532 1531 1529 1528 1527 1525
1509 1505 1503 1503 1508 1508 1512 1528 1544 1548 1554 1552 1538 1543 1543 1530 1528 1528 1530 1531 1531 1532 1533 1534 1535 1535 1536 1537 1537 1537 1537 1537 1537 1536 1535 1534 1533 1532 1531 1530 1528 1527 1525 1524
1520 1519 1505 1502 1506 1512 1514 1523 1543 1554 1556 1551 1540 1544 1537 1526 1526 1527 1528 1530 1531 1532 1532 1533 1534 1535 1536 1536 1537 1536 1536 1536 1536 1535 1534 1533 1532 1531 1530 1529 1527 1526 1524 1522
1519 1517 1501 1499 1500 1504 1515 1522 1522 1537 1543 1550 1547 1541 1533 1527 1528 1528 1528 1529 1530 1531 1532 1533 1534 1535 1536 1536 1536 1536 1536 1535 1535 1534 1533 1532 1531 1530 1529 1528 1526 1525 1523 1521
1507 1513 1503 1498 1499 1502 1506 1513 1526 1536 1548 1555 1548 1545 1541 1532 1529 1528 1528 1528 1529 1531 1532 1533 1534 1535 1535 1535 1535 1535 1535 1534 1534 1533 1532 1531 1530 1528 1527 1526 1525 1523 1521 1519
1502 1511 1508 1503 1505 1507 1509 1513 1520 1531 1535 1549 1555 1544 1519 1520 1521 1523 1525 1527 1528 1530 1531 1532 1533 1534 1534 1535 1534 1534 1534 1533 1532 1531 1530 1529 1528 1527 1526 1524 1523 1521 1519 1517
1500 1510 1516 1508 1498 1496 1501 1506 1516 1530 1534 1537 1543 1537 1511 1513 1516 1520 1523 1525 1527 1529 1530 1532 1532 1533 1533 1534 1533 1533 1532 1532 1531 1530 1529 1528 1527 1525 1524 1522 1521 1519 1517 1515
1497 1509 1522 1520 1513 1501 1501 1501 1506 1516 1527 1536 1541 1532 1513 1513 1516 1519 1521 1524 1526 1528 1529 1531 1531 1532 1532 1532 1532 1532 1531 1531 1530 1529 1528 1527 1525 1524 1522 1520 1519 1517 1515 1513
1492 1505 1515 1521 1514 1503 1502 1499 1501 1511 1525 1528 1526 1522 1517 1515 1516 1518 1520 1522 1525 1527 1528 1529 1530 1530 1531 1531 1531 1530 1530 1529 1528 1527 1526 1525 1523 1522 1520 1519 1517 1515 1513 1511
1492 1503 1501 1500 1496 1495 1496 1496 1497 1503 1509 1516 1514 1515 1511 1510 1511 1514 1517 1521 1523 1525 1526 1528 1528 1529 1529 1529 1529 1529 1529 1528 1527 1526 1525 1523 1522 1520 1519 1517 1515 1513 1510 1508
1493 1499 1499 1499 1494 1494 1495 1494 1494 1497 1499 1504 1506 1508 1502 1505 1509 1513 1516 1518 1520 1522 1524 1526 1527 1527 1527 1528 1527 1527 1527 1526 1525 1524 1523 1522 1520 1518 1516 1514 1512 1510 1508 1506
1495 1499 1505 1510 1500 1497 1503 1493 1492 1493 1492 1496 1503 1500 1499 1504 1506 1508 1511 1514 1516 1519 1521 1523 1524 1525 1525 1526 1526 1526 1525 1524 1523 1522 1521 1520 1518 1516 1514 1512 1510 1507 1505 1503
1494 1500 1509 1511 1507 1515 1498 1483 1482 1486 1486 1486 1487 1489 1492 1495 1500 1504 1507 1510 1513 1516 1518 1520 1522 1523 1523 1524 1524 1524 1523 1522 1521 1520 1519 1517 1516 1514 1512 1509 1507 1505 1502 1500
1486 1496 1507 1514 1515 1508 1492 1482 1481 1486 1488 1483 1485 1488 1492 1495 1501 1505 1506 1508 1510 1513 1515 1518 1519 1520 1521 1521 1522 1521 1521 1520 1519 1518 1516 1515 1513 1511 1509 1507 1504 1502 1500 1497
1487 1491 1504 1512 1513 1513 1492 1479 1476 1482 1491 1482 1482 1485 1490 1495 1505 1503 1503 1506 1509 1511 1514 1516 1517 1518 1519 1519 1519 1519 1518 1517 1516 1515 1514 1512 1511 1509 1506 1504 1502 1499 1497 1494
1493 1498 1504 1509 1510 1500 1482 1477 1478 1495 1491 1480 1480 1482 1486 1489 1492 1494 1499 1503 1506 1509 1511 1513 1514 1515 1516 1516 1516 1516 1515 1514 1513 1512 1511 1509 1508 1506 1504 1502 1499 1496 1494 1491
1492 1499 1503 1507 1509 1501 1477 1477 1481 1482 1477 1478 1479 1481 1484 1487 1490 1494 1497 1500 1503 1506 1508 1510 1511 1512 1513 1513 1513 1513 1512 1511 1510 1509 1508 1506 1504 1503 1501 1498 1496 1493 1490 1487
1486 1485 1487 1490 1489 1477 1474 1473 1474 1475 1476 1478 1479 1482 1484 1487 1489 1492 1495 1498 1501 1503 1505 1507 1508 1509 1510 1510 1510 1510 1509 1508 1507 1506 1504 1503 1501 1499 1497 1494 1492 1489 1486 1483
1479 1477 1481 1482 1478 1474 1473 1473 1474 1475 1476 1477 1479 1481 1483 1485 1488 1491 1494 1496 1499 1501 1502 1504 1505 1506 1506 1507 1507 1506 1506 1505 1503 1502 1500 1499 1497 1495 1493 1491 1488 1485 1483 1480
1476 1476 1479 1480 1476 1474 1473 1473 1473 1474 1475 1477 1479 1481 1482 1484 1487 1489 1491 1494 1496 1498 1499 1501 1502 1502 1503 1503 1503 1502 1502 1501 1499 1498 1496 1495 1493 1490 1488 1486 1484 1481 1479 1477
1472 1473 1476 1476 1471 1472 1471 1472 1473 1473 1474 1476 1478 1480 1482 1483 1485 1487 1489 1491 1493 1495 1496 1497 1498 1499 1499 1499 1499 1498 1498 1497 1495 1494 1492 1490 1488 1486 1483 1481 1479 1476 1475 1472